Home   Weather   Netanya   Past weeks

Flag for Israel Past Weather in Netanya, Israel — Yesterday and Last 2 Weeks

Now
88 °F

Sunny.


Feels Like: 93 °F
Forecast: 80 / 86 °F
Wind: 12 mph from Northwest

Location: Dov Airport

Current Time: Aug 20, 2017 at 1:07:46 pm

Latest Report: Aug 20, 2017 at 11:50 am


Visibility: 10 mi

Pressure: 29.83 "Hg

Humidity: 55%

Dew Point: 70 °F

Location of NetanyaLocation

Past Weather in Netanya — Graph

°F

Netanya Temperature Yesterday

Maximum temperature yesterday: 88 °F (at 11:50 am)
Minimum temperature yesterday: 77 °F (at 5:50 am)
Average temperature yesterday: 84 °F

High & Low Weather Summary for the Past Weeks

 TemperatureHumidityPressure
High91 °F (Aug 10, 2:50 pm)79% (Aug 7, 5:26 am)29.86 "Hg (Aug 7, 5:26 am)
Low77 °F (Aug 6, 4:30 am)52% (Aug 5, 11:50 am)29.65 "Hg (Aug 16, 5:50 pm)
Average84 °F66%29.76 "Hg
* Reported Aug 5 11:50 am — Aug 20 11:50 am, Netanya. Weather by CustomWeather, © 2017

Note: Actual official high and low records may vary slightly from our data, if they occured in-between our weather recording intervals... More about our weather records

Advertising

Netanya Weather History for the Previous 24 Hours

Scroll right to see more
 ConditionsComfort  
Time TempWeatherWind HumidityBarometerVisibility
11:50 am
Sun, Aug 20
88 °FSunny.12 mph55%29.83 "Hg10 mi
10:50 am86 °FSunny.8 mph62%29.83 "Hg10 mi
9:50 am84 °FSunny.7 mph66%29.83 "Hg10 mi
8:50 am84 °FSunny.5 mph62%29.83 "Hg10 mi
7:50 am81 °FSunny.3 mph66%29.83 "Hg10 mi
6:50 am79 °FSunny.5 mph65%29.83 "Hg10 mi
5:50 am79 °FClear.6 mph65%29.80 "Hg10 mi
4:50 am79 °FClear.5 mph70%29.83 "Hg10 mi
3:50 am81 °FClear.6 mph70%29.86 "Hg10 mi
11:50 pm
Sat, Aug 19
81 °FClear.6 mph70%29.86 "Hg10 mi
10:50 pm81 °FClear.7 mph70%29.86 "Hg10 mi
9:50 pm82 °FClear.7 mph66%29.86 "Hg10 mi
8:50 pm82 °FClear.8 mph66%29.86 "Hg10 mi
7:50 pm84 °FClear.10 mph62%29.83 "Hg10 mi
6:50 pm86 °FSunny.10 mph59%29.83 "Hg10 mi
5:50 pm88 °FSunny.12 mph55%29.83 "Hg10 mi
4:50 pm88 °FSunny.10 mph55%29.86 "Hg10 mi
3:50 pm88 °FSunny.10 mph55%29.86 "Hg10 mi
2:50 pm88 °FSunny.10 mph52%29.86 "Hg10 mi
1:50 pm88 °FSunny.10 mph55%29.86 "Hg10 mi
Weather by CustomWeather, © 2017

See weather overviewHow to use our weather pages